Total_Precipitation_Accumulation
0.32 0.35 0.51 0.39 0.28 0.34 0.44 0.45 0.39 0.35 0.33 0.37 0.38 0.37 0.38 0.41 0.39 0.37 0.37 0.41 0.46 0.50 0.50 0.55 0.53 0.56 0.57 0.52 0.50 0.43 0.40 0.40 0.49 0.58 0.62 0.62 0.69 0.91 1.18 1.23 1.24 0.79 0.73
0.14 0.21 0.38 0.32 0.24 0.30 0.40 0.42 0.39 0.37 0.34 0.36 0.41 0.44 0.51 0.52 0.43 0.39 0.42 0.43 0.44 0.49 0.45 0.41 0.41 0.42 0.47 0.43 0.37 0.32 0.40 0.52 0.65 0.81 0.79 0.68 0.72 0.92 1.08 1.08 1.24 0.75 0.68
0.10 0.12 0.24 0.30 0.24 0.26 0.37 0.40 0.42 0.47 0.47 0.45 0.46 0.49 0.53 0.48 0.43 0.40 0.43 0.41 0.42 0.43 0.38 0.36 0.34 0.33 0.36 0.36 0.36 0.40 0.52 0.69 0.92 1.06 1.17 0.72 0.53 0.84 0.94 0.92 0.83 0.69 0.66
0.13 0.09 0.15 0.24 0.25 0.27 0.37 0.43 0.58 0.59 0.56 0.51 0.52 0.49 0.45 0.40 0.37 0.35 0.39 0.41 0.44 0.39 0.36 0.31 0.28 0.27 0.29 0.30 0.36 0.49 0.64 0.79 0.98 1.33 1.32 0.67 0.40 0.58 0.72 0.74 0.64 0.62 0.58
0.15 0.12 0.16 0.21 0.23 0.33 0.42 0.49 0.54 0.47 0.45 0.46 0.49 0.47 0.45 0.41 0.40 0.38 0.38 0.38 0.40 0.37 0.33 0.27 0.26 0.26 0.27 0.31 0.40 0.54 0.67 0.80 1.08 1.23 0.87 0.75 0.70 0.64 0.59 0.63 0.65 0.61 0.49
0.15 0.15 0.19 0.24 0.28 0.35 0.36 0.38 0.44 0.47 0.43 0.43 0.45 0.46 0.45 0.44 0.44 0.40 0.33 0.32 0.33 0.35 0.33 0.28 0.26 0.26 0.28 0.35 0.42 0.53 0.70 0.90 1.03 0.69 0.59 0.57 0.60 0.66 0.57 0.72 0.81 0.69 0.56
0.20 0.19 0.23 0.33 0.36 0.37 0.34 0.36 0.37 0.41 0.44 0.47 0.46 0.43 0.42 0.40 0.41 0.39 0.32 0.28 0.30 0.31 0.29 0.28 0.27 0.31 0.35 0.39 0.44 0.54 0.73 1.02 0.82 0.53 0.56 0.63 0.60 0.58 0.65 0.88 1.04 0.91 0.75
0.36 0.30 0.34 0.42 0.42 0.41 0.38 0.37 0.37 0.38 0.39 0.38 0.37 0.39 0.37 0.34 0.38 0.42 0.39 0.30 0.28 0.29 0.27 0.26 0.27 0.34 0.41 0.45 0.51 0.57 0.70 0.76 0.46 0.42 0.42 0.50 0.45 0.47 0.70 0.93 1.09 1.07 0.97
0.52 0.37 0.40 0.50 0.51 0.48 0.52 0.47 0.44 0.42 0.41 0.39 0.39 0.40 0.38 0.36 0.35 0.38 0.43 0.39 0.33 0.35 0.33 0.31 0.30 0.35 0.41 0.47 0.52 0.57 0.65 0.68 0.51 0.49 0.44 0.46 0.46 0.64 0.98 1.11 1.12 1.12 1.09
0.92 0.72 0.65 0.58 0.54 0.52 0.52 0.53 0.52 0.49 0.43 0.41 0.42 0.39 0.41 0.42 0.41 0.44 0.42 0.44 0.44 0.47 0.49 0.45 0.44 0.43 0.45 0.47 0.54 0.60 0.62 0.59 0.60 0.57 0.53 0.42 0.53 0.81 1.14 1.27 1.29 1.24 1.14
1.17 1.01 0.82 0.66 0.62 0.62 0.56 0.55 0.62 0.59 0.54 0.52 0.55 0.51 0.59 0.73 0.67 0.73 0.63 0.70 0.68 0.69 0.73 0.71 0.74 0.74 0.69 0.59 0.69 0.78 0.68 0.70 0.74 0.66 0.53 0.44 0.62 0.91 1.21 1.34 1.34 1.32 1.20
1.26 1.08 0.95 0.82 0.70 0.62 0.61 0.73 0.93 0.78 0.77 0.83 0.93 0.95 1.13 1.32 1.29 0.86 0.89 1.13 1.20 1.27 1.24 1.23 1.24 1.06 0.91 0.85 1.25 1.45 0.85 0.82 0.86 0.76 0.65 0.68 0.92 1.18 1.43 1.40 1.31 1.33 1.22
1.60 1.40 1.20 1.03 0.87 0.80 0.94 0.87 0.98 1.12 1.19 1.21 1.24 1.25 1.41 1.34 1.15 0.98 1.09 1.35 1.60 1.66 1.55 1.72 1.78 1.44 1.50 1.73 1.73 1.57 1.11 1.21 1.19 1.09 0.96 1.09 1.31 1.60 1.97 1.77 1.47 1.33 1.26
1.82 1.68 1.64 1.41 1.25 1.33 1.27 1.01 0.95 1.00 1.10 1.25 1.49 1.45 1.53 1.72 1.62 1.56 1.61 1.65 1.79 1.98 2.22 2.18 2.33 2.18 2.10 1.98 1.97 1.85 1.61 1.63 1.57 1.68 1.61 1.47 1.54 1.79 2.26 2.23 1.79 1.50 1.33
2.00 1.93 1.92 1.87 1.71 1.78 1.60 1.40 1.22 1.33 1.33 1.38 1.51 1.64 1.59 1.81 1.98 1.97 1.93 1.90 1.81 1.90 2.06 2.25 2.29 2.63 2.74 2.38 2.01 1.89 1.87 1.94 1.86 1.84 1.74 1.66 1.59 1.72 2.08 2.31 2.16 1.91 1.62
2.37 2.38 2.20 2.15 2.15 2.13 2.04 2.00 1.92 1.70 1.71 1.65 1.61 1.61 1.64 1.86 2.09 2.19 2.06 2.04 1.91 1.87 2.03 2.21 2.38 2.85 2.89 2.70 2.27 2.04 1.96 1.93 1.77 1.70 1.76 1.94 1.77 1.66 1.79 2.06 2.27 2.22 2.05
2.81 2.81 2.81 2.77 2.90 2.83 2.65 2.49 2.31 2.14 1.98 1.95 1.99 1.99 1.88 1.90 2.07 2.09 1.93 1.84 1.88 2.02 2.18 2.22 2.37 2.69 2.45 2.43 2.23 2.07 1.88 1.70 1.53 1.47 1.64 1.81 1.70 1.64 1.77 1.90 2.07 2.16 2.25
3.07 3.19 3.34 3.36 3.36 3.21 3.15 3.04 2.80 2.59 2.43 2.26 2.18 2.22 2.04 1.96 1.98 2.13 1.95 1.78 2.07 2.15 2.24 2.45 2.58 2.61 2.57 2.58 2.35 2.02 1.80 1.67 1.36 1.26 1.28 1.38 1.56 1.37 1.62 1.85 1.90 1.94 2.16
3.54 3.77 3.92 3.94 3.79 3.52 3.52 3.47 3.31 3.13 2.79 2.43 2.27 2.18 2.03 1.97 2.05 2.31 2.27 2.33 2.41 2.44 2.44 2.34 2.63 2.63 2.55 2.56 2.28 2.00 1.64 1.45 1.25 1.12 1.06 1.02 1.15 1.22 1.30 1.45 1.60 1.69 2.04
4.08 4.44 4.25 4.13 4.28 4.15 3.97 3.79 3.49 3.06 2.65 2.49 2.41 2.22 2.09 2.08 2.16 2.50 2.36 2.32 2.42 2.53 2.54 2.49 2.50 2.51 2.29 2.27 2.11 1.87 1.49 1.17 1.08 0.99 0.87 0.85 0.89 0.85 1.01 1.23 1.45 1.31 1.65
4.13 4.50 4.64 4.61 4.48 4.24 3.80 3.45 3.19 2.96 2.80 2.55 2.38 2.29 2.17 2.06 2.15 2.45 2.34 2.44 2.41 2.41 2.41 2.43 2.45 2.31 1.96 2.15 2.25 1.83 1.37 1.07 1.05 0.82 0.74 0.77 0.78 0.77 0.95 1.22 1.39 1.37 1.30
3.79 4.24 4.52 4.66 4.53 4.13 3.67 3.41 3.25 3.18 2.83 2.52 2.48 2.49 2.31 2.32 2.31 2.31 2.37 2.33 2.36 2.44 2.34 2.29 2.35 2.18 1.83 1.96 2.13 2.18 1.62 1.27 0.98 0.70 0.75 0.84 0.93 1.00 1.02 1.11 1.26 1.38 1.36
3.34 3.64 3.75 3.90 3.84 3.67 3.65 3.62 3.51 3.43 2.99 2.81 2.77 2.73 2.57 2.54 2.49 2.44 2.38 2.27 2.19 2.06 2.02 2.04 2.08 2.08 1.92 1.83 2.00 2.27 1.88 1.43 1.19 0.85 0.80 0.87 1.06 1.25 1.22 1.24 1.24 1.37 1.47
2.87 3.20 3.44 3.50 3.43 3.32 3.38 3.38 3.23 3.00 2.81 2.87 3.10 3.05 2.78 2.55 2.34 2.10 1.95 1.97 1.95 1.88 1.82 1.61 1.68 1.78 1.73 1.57 1.70 1.80 1.84 1.86 1.77 1.20 0.87 0.82 1.00 1.15 1.26 1.18 1.16 1.28 1.45
2.47 2.74 3.01 3.28 3.35 3.28 3.29 3.20 3.17 3.02 2.98 2.99 2.91 2.81 2.58 2.34 2.03 1.74 1.64 1.70 1.69 1.63 1.54 1.46 1.54 1.46 1.39 1.36 1.50 1.67 1.77 1.83 1.82 1.69 1.30 1.20 1.17 1.03 1.06 1.10 1.22 1.29 1.32
2.12 2.24 2.38 2.59 2.85 3.00 3.01 2.98 2.96 2.85 2.79 2.69 2.51 2.32 2.12 1.94 1.69 1.45 1.35 1.45 1.54 1.55 1.51 1.46 1.48 1.37 1.37 1.45 1.42 1.51 1.69 1.67 1.68 1.78 1.51 1.38 1.29 1.05 1.04 1.15 1.17 1.32 1.38